DW7787 Weather Reports


Display with metric or nautical units.
time (UTC)temp
F
wind
direction
speed
MPH
gust
MPH
rain 1hr
in
rain 24hr
in
rain mn
in
humidity
%
barometer
mb
20260904161640 90 207 1.0 6.0 0.00 0.00 0.00 64 1018.7
20260904161143 89 12 1.0 6.0 0.00 0.00 0.00 65 1018.7
20260904161017 89 46 1.0 6.0 0.00 0.00 0.00 67 1018.8
20260904160143 89 205 1.0 4.0 0.00 0.00 0.00 68 1018.8
20260904155639 88 285 1.0 4.0 0.00 0.00 0.00 68 1018.8
20260904155138 88 208 1.0 4.0 0.00 0.00 0.00 68 1018.8
20260904154643 88 209 1.0 4.0 0.00 0.00 0.00 69 1018.9
20260904154140 87 98 1.0 4.0 0.00 0.00 0.00 70 1019.0
20260904153639 87 194 1.0 4.0 0.00 0.00 0.00 70 1019.0
20260904153138 87 276 1.0 3.0 0.00 0.00 0.00 70 1019.1
20260904152640 87 169 1.0 5.0 0.00 0.00 0.00 70 1019.0
20260904152138 86 205 2.0 5.0 0.00 0.00 0.00 71 1019.0
20260904151638 86 209 2.0 4.0 0.00 0.00 0.00 71 1019.0
20260904151141 86 264 2.0 4.0 0.00 0.00 0.00 72 1019.1
20260904151108 85 207 2.0 7.0 0.00 0.00 0.00 73 1019.0
20260904150656 86 236 1.0 3.0 0.00 0.00 0.00 72 1019.0
20260904150248 85 80 1.0 7.0 0.00 0.00 0.00 73 1019.1
20260904145527 85 11 2.0 7.0 0.00 0.00 0.00 74 1019.0
20260904144942 84 186 2.0 7.0 0.00 0.00 0.00 74 1019.1
20260904144138 84 235 1.0 4.0 0.00 0.00 0.00 75 1019.1
20260904143637 84 313 1.0 4.0 0.00 0.00 0.00 75 1019.2
20260904143137 84 5 1.0 4.0 0.00 0.00 0.00 75 1019.2
20260904142638 83 176 1.0 4.0 0.00 0.00 0.00 75 1019.1
20260904142142 83 239 2.0 8.0 0.00 0.00 0.00 76 1018.9
20260904141640 83 341 2.0 9.0 0.00 0.00 0.00 76 1018.9
20260904141142 83 232 1.0 9.0 0.00 0.00 0.00 76 1019.0
20260904140635 82 94 2.0 7.0 0.00 0.00 0.00 78 1018.9
20260904140134 82 85 2.0 7.0 0.00 0.00 0.00 79 1018.8
20260904135947 81 239 1.0 3.0 0.00 0.00 0.00 80 1018.8
20260904135137 81 355 1.0 3.0 0.00 0.00 0.00 81 1018.7
20260904134638 81 331 1.0 3.0 0.00 0.00 0.00 80 1018.8
20260904134137 80 57 1.0 3.0 0.00 0.00 0.00 81 1018.8
20260904133630 80 324 1.0 4.0 0.00 0.00 0.00 82 1018.8
20260904133516 80 66 1.0 4.0 0.00 0.00 0.00 82 1018.8
20260904132630 80 178 1.0 3.0 0.00 0.00 0.00 83 1018.7
20260904132130 79 126 1.0 4.0 0.00 0.00 0.00 84 1018.8
20260904131629 79 219 1.0 4.0 0.00 0.00 0.00 84 1018.8
20260904131130 79 232 1.0 3.0 0.00 0.00 0.00 84 1018.7
20260904130628 78 163 1.0 3.0 0.00 0.00 0.00 85 1018.7
20260904130130 78 246 1.0 4.0 0.00 0.00 0.00 85 1018.7
20260904125630 78 225 1.0 4.0 0.00 0.00 0.00 86 1018.7
20260904125517 78 259 1.0 4.0 0.00 0.00 0.00 86 1018.7
20260904124632 77 215 0.0 3.0 0.00 0.00 0.00 87 1018.7
20260904124131 77 229 0.0 3.0 0.00 0.00 0.00 87 1018.7
20260904123632 77 198 0.0 1.0 0.00 0.00 0.00 87 1018.7
20260904123456 77 92 0.0 2.0 0.00 0.00 0.00 87 1018.7
20260904122631 77 338 0.0 2.0 0.00 0.00 0.00 88 1018.6
20260904122129 77 206 0.0 2.0 0.00 0.00 0.00 88 1018.6
20260904122003 76 103 0.0 2.0 0.00 0.00 0.00 88 1018.6
20260904121130 76 211 1.0 3.0 0.00 0.00 0.00 88 1018.6
20260904120634 76 212 1.0 3.0 0.00 0.00 0.00 88 1018.6
20260904120442 76 212 0.0 3.0 0.00 0.00 0.00 88 1018.7
20260904115626 76 320 0.0 1.0 0.00 0.00 0.00 88 1018.6
20260904115126 76 320 0.0 1.0 0.00 0.00 0.00 88 1018.6
20260904114621 76 320 0.0 1.0 0.00 0.00 0.00 88 1018.6
20260904114120 76 320 0.0 1.0 0.00 0.00 0.00 88 1018.6
20260904113620 76 320 0.0 1.0 0.00 0.00 0.00 88 1018.7
20260904113122 76 320 0.0 1.0 0.00 0.00 0.00 87 1018.6
20260904112616 76 320 0.0 1.0 0.00 0.00 0.00 88 1018.6
20260904112456 76 320 0.0 1.0 0.00 0.00 0.00 88 1018.4
20260904111612 76 320 0.0 3.0 0.00 0.00 0.00 88 1018.3
20260904111111 76 309 0.0 3.0 0.00 0.00 0.00 88 1018.2
20260904110611 76 320 0.0 1.0 0.00 0.00 0.00 88 1018.2
20260904110110 76 0 0.0 3.0 0.00 0.00 0.00 88 1018.1
20260904105615 76 0 0.0 3.0 0.00 0.00 0.00 88 1018.1
20260904105110 76 212 0.0 1.0 0.00 0.00 0.00 88 1018.0
20260904104616 76 212 0.0 1.0 0.00 0.00 0.00 88 1017.9
20260904104435 76 193 0.0 2.0 0.00 0.00 0.00 88 1017.8
20260904103932 76 193 0.0 2.0 0.00 0.00 0.00 88 1017.8
20260904103112 76 193 0.0 1.0 0.00 0.00 0.00 88 1017.8
20260904102612 76 193 0.0 2.0 0.00 0.00 0.00 88 1017.8
20260904102245 76 196 0.0 3.0 0.00 0.00 0.00 88 1017.8
20260904102212 76 193 0.0 2.0 0.00 0.00 0.00 88 1017.7
20260904101050 76 196 0.0 3.0 0.00 0.00 0.00 88 1017.7
20260904100543 76 13 0.0 1.0 0.00 0.00 0.00 87 1017.7
20260904100038 76 13 0.0 1.0 0.00 0.00 0.00 87 1017.7
20260904095533 76 13 0.0 1.0 0.00 0.00 0.00 87 1017.6
20260904095030 76 13 0.0 1.0 0.00 0.00 0.00 87 1017.6
20260904094533 76 13 0.0 1.0 0.00 0.00 0.00 87 1017.7
20260904094354 76 13 0.0 1.0 0.00 0.00 0.00 87 1017.6
20260904093534 76 13 0.0 0.0 0.00 0.00 0.00 87 1017.5
20260904093417 76 13 0.0 0.0 0.00 0.00 0.00 86 1017.5
20260904092759 76 13 0.0 0.0 0.00 0.00 0.00 86 1017.6
20260904092429 76 13 0.0 0.0 0.00 0.00 0.00 86 1017.6
20260904091905 76 13 0.0 0.0 0.00 0.00 0.00 86 1017.5
20260904091420 76 14 0.0 0.0 0.00 0.00 0.00 86 1017.5
20260904090537 76 13 0.0 0.0 0.00 0.00 0.00 86 1017.5
20260904090033 76 13 0.0 0.0 0.00 0.00 0.00 85 1017.4
20260904085531 77 13 0.0 0.0 0.00 0.00 0.00 85 1017.5
20260904085031 77 13 0.0 0.0 0.00 0.00 0.00 85 1017.4
20260904084530 77 13 0.0 0.0 0.00 0.00 0.00 84 1017.5
20260904084030 77 14 0.0 0.0 0.00 0.00 0.00 84 1017.5
20260904083529 77 13 0.0 0.0 0.00 0.00 0.00 84 1017.4
20260904083332 77 13 0.0 0.0 0.00 0.00 0.00 83 1017.3
20260904082528 77 13 0.0 0.0 0.00 0.00 0.00 83 1017.3
20260904082321 77 13 0.0 0.0 0.00 0.00 0.00 83 1017.4
20260904081516 78 13 0.0 0.0 0.00 0.00 0.00 83 1017.4
20260904081326 78 13 0.0 0.0 0.00 0.00 0.00 82 1017.5
20260904080513 78 14 0.0 0.0 0.00 0.00 0.00 82 1017.4
20260904080007 78 13 0.0 0.0 0.00 0.00 0.00 82 1017.3
20260904075506 78 13 0.0 0.0 0.00 0.00 0.00 81 1017.5
20260904075004 78 13 0.0 0.0 0.00 0.00 0.00 81 1017.4
20260904074503 78 13 0.0 0.0 0.00 0.00 0.00 81 1017.5
20260904074323 79 13 0.0 0.0 0.00 0.00 0.00 81 1017.5
20260904073502 79 13 0.0 0.0 0.00 0.00 0.00 80 1017.5
20260904073002 79 13 0.0 0.0 0.00 0.00 0.00 80 1017.5
20260904072501 79 13 0.0 0.0 0.00 0.00 0.00 80 1017.4
20260904072001 79 13 0.0 0.0 0.00 0.00 0.00 79 1017.5
20260904071504 79 13 0.0 0.0 0.00 0.00 0.00 79 1017.4
20260904071001 80 13 0.0 0.0 0.00 0.00 0.00 79 1017.5
20260904070501 80 13 0.0 0.0 0.00 0.00 0.00 79 1017.5
20260904070001 80 14 0.0 0.0 0.00 0.00 0.00 79 1017.5
20260904065504 80 13 0.0 0.0 0.00 0.00 0.00 78 1017.6
20260904065000 80 13 0.0 0.0 0.00 0.00 0.00 78 1017.7
20260904064502 80 13 0.0 0.0 0.00 0.00 0.00 78 1017.7
20260904064004 80 13 0.0 1.0 0.00 0.00 0.00 78 1017.7
20260904063615 80 13 0.0 0.0 0.00 0.00 0.00 77 1017.8
20260904063554 80 13 0.0 1.0 0.00 0.00 0.00 78 1017.8
20260904062502 81 13 0.0 1.0 0.00 0.00 0.00 77 1017.8
20260904062004 81 13 0.0 1.0 0.00 0.00 0.00 77 1017.9
20260904061826 81 13 0.0 0.0 0.00 0.00 0.00 77 1018.0
20260904061000 81 13 0.0 1.0 0.00 0.00 0.00 76 1018.0
20260904060500 81 13 0.0 2.0 0.00 0.00 0.00 76 1018.1
20260904060004 81 13 0.0 2.0 0.00 0.00 0.00 76 1018.1
20260904055815 81 155 0.0 1.0 0.00 0.00 0.00 76 1018.1
20260904055005 81 155 0.0 1.0 0.00 0.00 0.00 76 1018.1
20260904054503 81 155 0.0 1.0 0.00 0.00 0.00 76 1018.2
20260904054322 81 155 0.0 1.0 0.00 0.00 0.00 76 1018.2
20260904053459 81 155 0.0 1.0 0.00 0.00 0.00 76 1018.3
20260904052957 82 156 0.0 1.0 0.00 0.00 0.00 76 1018.2
20260904052454 82 168 0.0 1.0 0.00 0.00 0.00 75 1018.3
20260904052128 82 161 0.0 1.0 0.00 0.00 0.00 76 1018.3
20260904052058 82 121 0.0 1.0 0.00 0.00 0.00 76 1018.4
20260904050954 82 161 0.0 2.0 0.00 0.00 0.00 76 1018.4
20260904050455 82 164 0.0 2.0 0.00 0.00 0.00 76 1018.3
20260904045952 82 164 0.0 1.0 0.00 0.00 0.00 76 1018.4
20260904045450 82 90 0.0 2.0 0.00 0.00 0.00 76 1018.3
20260904044950 82 60 0.0 2.0 0.00 0.00 0.00 76 1018.3
20260904044450 82 9 0.0 0.0 0.00 0.00 0.00 76 1018.4
20260904043950 82 9 0.0 0.0 0.00 0.00 0.00 76 1018.4
20260904043449 82 9 0.0 0.0 0.00 0.00 0.00 76 1018.3
20260904042951 82 9 0.0 1.0 0.00 0.00 0.00 76 1018.2
20260904042449 82 9 0.0 2.0 0.00 0.00 0.00 76 1018.3
20260904042107 82 77 0.0 1.0 0.00 0.00 0.00 76 1018.2
20260904042045 82 9 0.0 2.0 0.00 0.00 0.00 76 1018.3
20260904040949 82 77 0.0 2.0 0.00 0.00 0.00 76 1018.3
20260904040447 81 157 0.0 2.0 0.00 0.00 0.00 76 1018.4
20260904035947 81 132 0.0 0.0 0.00 0.00 0.00 77 1018.3
20260904035450 81 132 0.0 1.0 0.00 0.00 0.00 77 1018.3
20260904034947 81 132 0.0 1.0 0.00 0.00 0.00 78 1018.3
20260904034444 81 132 0.0 1.0 0.00 0.00 0.00 78 1018.3
20260904034307 82 132 0.0 1.0 0.00 0.00 0.00 78 1018.3
20260904033440 82 132 0.0 0.0 0.00 0.00 0.00 79 1018.2
20260904032938 82 132 0.0 0.0 0.00 0.00 0.00 78 1018.4
20260904032635 82 132 0.0 0.0 0.00 0.00 0.00 77 1018.4
20260904032551 82 132 0.0 0.0 0.00 0.00 0.00 78 1018.4
20260904031436 82 132 0.0 0.0 0.00 0.00 0.00 78 1018.6
20260904030938 82 132 0.0 0.0 0.00 0.00 0.00 77 1018.4
20260904030432 82 132 0.0 0.0 0.00 0.00 0.00 76 1018.4
20260904025933 82 132 0.0 0.0 0.00 0.00 0.00 76 1018.4
20260904025429 83 132 0.0 0.0 0.00 0.00 0.00 75 1018.4
20260904024929 83 132 0.0 0.0 0.00 0.00 0.00 75 1018.6
20260904024430 83 132 0.0 0.0 0.00 0.00 0.00 75 1018.6
20260904023933 83 132 0.0 0.0 0.00 0.00 0.00 75 1018.6
20260904023428 83 132 0.0 0.0 0.00 0.00 0.00 75 1018.7
20260904022930 83 132 0.0 0.0 0.00 0.00 0.00 74 1018.8
20260904022430 84 132 0.0 0.0 0.00 0.00 0.00 74 1018.8
20260904021930 84 132 0.0 0.0 0.00 0.00 0.00 73 1018.8
20260904021429 84 132 0.0 0.0 0.00 0.00 0.00 73 1018.8
20260904020930 84 132 0.0 0.0 0.00 0.00 0.00 71 1018.8
20260904020428 84 132 0.0 0.0 0.00 0.00 0.00 71 1018.9
20260904020259 84 132 0.0 0.0 0.00 0.00 0.00 71 1018.8
20260904015429 85 132 0.0 0.0 0.00 0.00 0.00 71 1018.7
20260904014927 85 132 0.0 0.0 0.00 0.00 0.00 71 1018.6
20260904014425 85 132 0.0 0.0 0.00 0.00 0.00 71 1018.4
20260904013927 85 132 0.0 0.0 0.00 0.00 0.00 71 1018.2
20260904013426 85 132 0.0 0.0 0.00 0.00 0.00 69 1018.3
20260904012924 85 132 0.0 0.0 0.00 0.00 0.00 69 1018.3
20260904012424 86 132 0.0 0.0 0.00 0.00 0.00 68 1018.2
20260904011924 86 132 0.0 0.0 0.00 0.00 0.00 68 1018.2
20260904011830 87 132 0.0 0.0 0.00 0.00 0.00 68 1018.0
20260904011454 86 132 0.0 0.0 0.00 0.00 0.00 68 1017.9
20260904011441 86 132 0.0 0.0 0.00 0.00 0.00 68 1018.1
20260904005923 87 132 0.0 0.0 0.00 0.00 0.00 67 1017.9
20260904005426 87 132 0.0 0.0 0.00 0.00 0.00 67 1017.7
20260904004923 87 132 0.0 0.0 0.00 0.00 0.00 67 1017.6
20260904004423 87 132 0.0 0.0 0.00 0.00 0.00 66 1017.6
20260904003920 88 132 0.0 0.0 0.00 0.00 0.00 66 1017.6
20260904003420 88 132 0.0 0.0 0.00 0.00 0.00 65 1017.5
20260904002919 88 132 0.0 0.0 0.00 0.00 0.00 64 1017.4
20260904002421 88 132 0.0 0.0 0.00 0.00 0.00 65 1017.3
20260904002246 89 132 0.0 0.0 0.00 0.00 0.00 65 1017.3
20260904001419 89 132 0.0 0.0 0.00 0.00 0.00 64 1017.2
20260904000921 89 132 0.0 0.0 0.00 0.00 0.00 63 1017.1
20260904000425 89 132 0.0 0.0 0.00 0.00 0.00 63 1017.1
20260903235921 90 132 0.0 0.0 0.00 0.00 0.00 61 1017.0
20260903235423 90 132 0.0 0.0 0.00 0.00 0.00 60 1017.0
20260903234924 90 132 0.0 0.0 0.00 0.00 0.00 60 1016.9
20260903234419 91 132 0.0 0.0 0.00 0.00 0.00 59 1016.9
20260903233923 91 132 0.0 0.0 0.00 0.00 0.00 58 1016.9
20260903233423 91 132 0.0 0.0 0.00 0.00 0.00 58 1016.8
20260903233237 91 132 0.0 0.0 0.00 0.00 0.00 58 1016.8
20260903232421 91 132 0.0 0.0 0.00 0.00 0.00 57 1016.8
20260903232255 91 132 0.0 0.0 0.00 0.00 0.00 58 1016.7
20260903231618 92 132 0.0 2.0 0.00 0.00 0.00 57 1016.8
20260903231532 92 132 0.0 0.0 0.00 0.00 0.00 58 1016.8
20260903230414 92 132 1.0 2.0 0.00 0.00 0.00 57 1016.7
20260903230233 92 132 1.0 2.0 0.00 0.00 0.00 56 1016.7
20260903225414 92 132 1.0 2.0 0.00 0.00 0.00 55 1016.7
20260903224914 92 132 1.0 2.0 0.00 0.00 0.00 56 1016.8
20260903224413 92 132 1.0 2.0 0.00 0.00 0.00 54 1016.7
20260903223916 93 125 1.0 2.0 0.00 0.00 0.00 54 1016.7
20260903223411 93 133 1.0 2.0 0.00 0.00 0.00 52 1016.8
20260903222909 94 119 0.0 1.0 0.00 0.00 0.00 53 1016.8
20260903222409 94 119 1.0 2.0 0.00 0.00 0.00 52 1016.8
20260903222013 94 102 1.0 2.0 0.00 0.00 0.00 51 1016.8
20260903221940 94 119 1.0 2.0 0.00 0.00 0.00 51 1016.9
20260903220909 94 109 0.0 2.0 0.00 0.00 0.00 50 1016.8
20260903220415 95 74 0.0 1.0 0.00 0.00 0.00 53 1016.9
20260903215908 95 74 0.0 2.0 0.00 0.00 0.00 51 1016.9
20260903215722 95 74 0.0 2.0 0.00 0.00 0.00 51 1017.0
20260903214917 96 74 0.0 1.0 0.00 0.00 0.00 50 1017.0
20260903214740 96 74 0.0 2.0 0.00 0.00 0.00 49 1016.9
20260903213857 96 74 0.0 2.0 0.00 0.00 0.00 48 1017.0
20260903213357 97 182 0.0 1.0 0.00 0.00 0.00 49 1017.0
20260903212853 97 182 0.0 2.0 0.00 0.00 0.00 48 1017.0
20260903212336 97 171 0.0 2.0 0.00 0.00 0.00 46 1017.1
20260903211834 97 15 0.0 2.0 0.00 0.00 0.00 47 1017.1
20260903211333 97 142 1.0 2.0 0.00 0.00 0.00 47 1017.1
20260903211155 97 120 1.0 2.0 0.00 0.00 0.00 46 1017.0
20260903210708 96 133 1.0 3.0 0.00 0.00 0.00 49 1017.1
20260903205831 96 140 2.0 5.0 0.00 0.00 0.00 47 1017.1
20260903205329 97 122 2.0 5.0 0.00 0.00 0.00 46 1017.1
20260903204832 98 130 0.0 2.0 0.00 0.00 0.00 46 1017.2
20260903204329 98 279 0.0 2.0 0.00 0.00 0.00 47 1017.1
20260903203829 99 303 0.0 2.0 0.00 0.00 0.00 46 1017.2
20260903203622 99 355 1.0 2.0 0.00 0.00 0.00 45 1017.2
20260903202830 99 355 1.0 3.0 0.00 0.00 0.00 43 1017.3
20260903202329 100 140 1.0 4.0 0.00 0.00 0.00 45 1017.3
20260903201829 100 213 1.0 4.0 0.00 0.00 0.00 44 1017.3
20260903201335 100 205 1.0 3.0 0.00 0.00 0.00 43 1017.3
20260903200837 100 34 1.0 3.0 0.00 0.00 0.00 44 1017.4
20260903200332 100 32 1.0 3.0 0.00 0.00 0.00 44 1017.4
20260903200147 100 173 1.0 2.0 0.00 0.00 0.00 46 1017.4
20260903195327 99 137 1.0 2.0 0.00 0.00 0.00 46 1017.5
20260903194818 98 329 1.0 3.0 0.00 0.00 0.00 44 1017.6
20260903194315 98 92 2.0 3.0 0.00 0.00 0.00 45 1017.7
20260903193805 97 122 2.0 3.0 0.00 0.00 0.00 47 1017.8
20260903193307 99 109 1.0 3.0 0.00 0.00 0.00 44 1017.9
20260903192803 100 133 1.0 3.0 0.00 0.00 0.00 45 1017.8
20260903192616 100 155 1.0 3.0 0.00 0.00 0.00 45 1017.7
20260903191802 100 217 1.0 3.0 0.00 0.00 0.00 43 1017.8
20260903191302 99 110 1.0 3.0 0.00 0.00 0.00 44 1018.0
20260903191134 99 213 1.0 3.0 0.00 0.00 0.00 43 1018.0
20260903190618 99 131 1.0 3.0 0.00 0.00 0.00 44 1018.0
20260903185803 99 144 1.0 3.0 0.00 0.00 0.00 46 1018.1
20260903185306 99 115 1.0 3.0 0.00 0.00 0.00 45 1018.2
20260903184807 99 132 1.0 3.0 0.00 0.00 0.00 46 1018.2
20260903184307 98 203 1.0 3.0 0.00 0.00 0.00 47 1018.3
20260903183804 96 75 1.0 3.0 0.00 0.00 0.00 48 1018.3
20260903183307 96 51 1.0 3.0 0.00 0.00 0.00 51 1018.4
20260903182804 96 56 1.0 3.0 0.00 0.00 0.00 51 1018.3
20260903182630 96 53 1.0 2.0 0.00 0.00 0.00 50 1018.4
20260903181808 96 29 1.0 3.0 0.00 0.00 0.00 48 1018.6
20260903181306 96 216 1.0 3.0 0.00 0.00 0.00 48 1018.6
20260903180808 95 54 1.0 4.0 0.00 0.00 0.00 51 1018.4
20260903180258 95 57 1.0 5.0 0.00 0.00 0.00 49 1018.6
20260903175754 96 42 1.0 5.0 0.00 0.00 0.00 48 1018.6
20260903175252 96 255 2.0 4.0 0.00 0.00 0.00 50 1018.7
20260903174750 97 233 2.0 4.0 0.00 0.00 0.00 48 1018.7
20260903174250 97 76 2.0 3.0 0.00 0.00 0.00 48 1018.8
20260903173751 97 144 1.0 3.0 0.00 0.00 0.00 49 1019.0
20260903173249 97 118 1.0 3.0 0.00 0.00 0.00 49 1019.0
20260903172748 96 113 1.0 3.0 0.00 0.00 0.00 50 1019.0
20260903172437 94 51 2.0 5.0 0.00 0.00 0.00 52 1019.2
20260903172353 94 219 1.0 3.0 0.00 0.00 0.00 50 1019.1
20260903171251 94 43 2.0 5.0 0.00 0.00 0.00 52 1019.2
20260903170746 94 55 2.0 5.0 0.00 0.00 0.00 53 1019.4
20260903170618 95 59 1.0 5.0 0.00 0.00 0.00 53 1019.3
20260903165747 95 96 1.0 3.0 0.00 0.00 0.00 52 1019.4
20260903165249 96 99 1.0 2.0 0.00 0.00 0.00 50 1019.5
20260903164745 96 89 1.0 3.0 0.00 0.00 0.00 51 1019.5
20260903164249 96 130 1.0 3.0 0.00 0.00 0.00 50 1019.6
20260903163740 95 134 1.0 3.0 0.00 0.00 0.00 52 1019.7
20260903163239 94 63 2.0 3.0 0.00 0.00 0.00 52 1019.8
20260903162737 94 220 2.0 4.0 0.00 0.00 0.00 53 1019.8
20260903162240 94 115 1.0 4.0 0.00 0.00 0.00 54 1019.8